Regional Weather Roundup
Issued by NWS

Home | Current Version | Previous Version | Text Only | Print | Product List | Glossary On
Versions: 1 2 3 4 5 6 7 8 9 10 11 12 13 14 15 16 17 18 19 20 21 22 23 24 25 26 27 28 29 30 31 32 33 34 35 36 37 38 39 40 41 42 43 44 45 46 47 48 49 50
440
ASUS43 KMKX 221307
RWRWI

WISCONSIN REGIONAL WEATHER ROUNDUP
NATIONAL WEATHER SERVICE MILWAUKEE/SULLIVAN WI
800 AM CDT FRI MAY 22 2015

NOTE: "FAIR" INDICATES FEW OR NO CLOUDS BELOW 12,000 FEET WITH NO
SIGNIFICANT WEATHER AND/OR OBSTRUCTIONS TO VISIBILITY.

WIZ001-002-006>008-014>016-023>028-221400-
NORTHWEST WISCONSIN

CITY           SKY/WX    TMP DP  RH WIND       PRES   REMARKS
SUPERIOR ARPT  SUNNY     46  35  65 NE5       30.22R
ASHLAND        SUNNY     48  35  60 CALM      30.21R
HAYWARD        SUNNY     47  36  65 CALM      30.21R
SIREN          SUNNY     47  40  78 CALM      30.21R
CUMBERLAND     SUNNY     46  37  71 CALM      30.20R
RICE LAKE      SUNNY     46  40  77 CALM      30.22R
CHETEK         SUNNY     47  42  81 CALM      30.21R
LADYSMITH      SUNNY     46  39  78 CALM      30.21R
EAU CLAIRE     NOT AVBL
MENOMONIE      SUNNY     49  39  66 N6        30.20R
NEW RICHMOND   SUNNY     49  39  69 CALM      30.20R
OSCEOLA        SUNNY     46  44  95 CALM      30.23R
$$

WIZ003>005-009-010-017-018-221400-
NORTH CENTRAL WISCONSIN

CITY           SKY/WX    TMP DP  RH WIND       PRES   REMARKS
MANITOWISH WTR SUNNY     44  33  66 CALM      30.19R
ARBOR VITAE    SUNNY     44  35  71 CALM      30.20R
WOODRUFF       SUNNY     44  35  71 CALM      30.20R
RHINELANDER    SUNNY     48  31  51 SW6       30.20R
EAGLE RIVER    SUNNY     46  25  45 CALM      30.19R
LAND O LAKES   SUNNY     44  28  53 CALM      30.20S
PHILLIPS       SUNNY     42  38  86 CALM      30.19R
TOMAHAWK       SUNNY     41  37  86 CALM      30.20R
MEDFORD        SUNNY     46  37  73 S5        30.20R
MERRILL        SUNNY     42  37  82 CALM      30.21R
$$

WIZ029-030-035-036-043>047-221400-
CENTRAL WISCONSIN

CITY           SKY/WX    TMP DP  RH WIND       PRES   REMARKS
WAUSAU         SUNNY     49  32  52 S8        30.20R
MOSINEE        SUNNY     46  34  61 VRB5      30.22R
MARSHFIELD     SUNNY     50  36  58 E6        30.21R
STEVENS POINT  SUNNY     46  32  58 CALM      30.21R
WAUPACA        SUNNY     49  36  61 CALM      30.21S
WAUTOMA        NOT AVBL
WISC RAPIDS    SUNNY     51  31  46 SE3       30.22R
CAMP DOUGLAS   NOT AVBL
$$

WIZ011>013-019>022-031-037>040-048>050-221400-
NORTHEAST WISCONSIN

CITY           SKY/WX    TMP DP  RH WIND       PRES   REMARKS
ANTIGO         SUNNY     42  34  73 CALM      30.20S
SHAWANO        SUNNY     47  38  71 CALM      30.22R
OCONTO         SUNNY     45  31  58 CALM      30.21R
STURGEON BAY   SUNNY     46  28  49 NW7       30.23R
GREEN BAY      SUNNY     51  31  46 N5        30.22R
MANITOWOC      NOT AVBL
APPLETON       SUNNY     48  28  46 CALM      30.21R
CLINTONVILLE   SUNNY     45  37  76 CALM      30.21S
OSHKOSH        SUNNY     52  30  43 E6        30.21R
$$

WIZ032>034-041-042-053>061-221400-
SOUTHWEST WISCONSIN

CITY           SKY/WX    TMP DP  RH WIND       PRES   REMARKS
LA CROSSE      SUNNY     52  43  71 SE3       30.19R
SPARTA         SUNNY     44  39  81 CALM      30.20R
VIROQUA        SUNNY     51  40  68 SE8       30.19R
BOSCOBEL       SUNNY     50  44  80 NE5       30.21R
PRAIRIE DU CHI SUNNY     47  43  85 CALM      30.19R
PLATTEVILLE    SUNNY     51  42  70 SE5       30.19R
$$

WIZ056-057-062-063-064-067-068-221400-
SOUTH CENTRAL WISCONSIN

CITY           SKY/WX    TMP DP  RH WIND       PRES   REMARKS
REEDSBURG      SUNNY     48  39  70 CALM      30.20R
BARABOO/DELLS  SUNNY     48  34  58 E3        30.20R
LONE ROCK      NOT AVBL
MINERAL POINT  SUNNY     54  34  47 E5        30.19R
MADISON        SUNNY     51  35  54 CALM      30.20R
MIDDLETON      SUNNY     52  30  43 E3        30.21R
WATERTOWN      SUNNY     50  33  52 NE3       30.19R
MONROE         SUNNY     50  36  57 NE6       30.18R
JANESVILLE     SUNNY     54  34  47 NE8       30.18R
$$

WIZ051-052-058>065-066-070>072-221400-
SOUTHEAST WISCONSIN

CITY           SKY/WX    TMP DP  RH WIND       PRES   REMARKS
MILWAUKEE      SUNNY     50  35  56 NE8       30.20R
WAUKESHA       SUNNY     50  32  50 E5        30.20R
MILWAUKEE/TIMM SUNNY     50  28  43 NE5       30.21R
RACINE         SUNNY     51  36  56 N8        30.21R
BURLINGTON     SUNNY     49  33  53 NE3       30.19R
KENOSHA        SUNNY     53  39  59 E6        30.19R
FOND DU LAC    SUNNY     51  31  46 NE5       30.21R
SHEBOYGAN      SUNNY     50  32  50 NE7       30.21R
WEST BEND      SUNNY     48  34  57 CALM      30.20R
JUNEAU         SUNNY     49  32  52 CALM      30.21R
$$

LSZ147-162-221400-
LAKE SUPERIOR

STATION/POSITION TIME  TEMP    WIND        PRES    WAVE
                       AIR SEA DIR/SP/G            HT/PER
                 (UTC) (F)     (DEG/KT/KT) (MB)    (FT/S)
W MID LAKE BUOY  1150   38 36   50/  6/  6   N/A     0
DEVILS ISLAND    1200   40      30/  3/  4   N/A
PORT WING        1200   43      CALM  /  2   N/A
SAXON HARBOR     1200   40        CALM       N/A
$$

LMZ867-665-643>646-221400-
LAKE MICHIGAN

STATION/POSITION TIME  TEMP    WIND        PRES    WAVE
                       AIR SEA DIR/SP/G            HT/PER
                 (UTC) (F)     (DEG/KT/KT) (MB)    (FT/S)
CHAMBERS ISLAND  1200   47     340/  7/  8   N/A
N MID LAKE BUOY  1150   38 36  320/  6/  8   N/A     1/ 3
NORTHPORT PIER   1200   45     360/  8/ 18   N/A
SISTER BAY       1217   48     360/ 11/ 12   N/A
KEWAUNEE LAKESHO 1200          310/  1/  3   N/A
SHEBOYGAN LAKESH 1200          350/  7/  8   N/A
PORT WASHINGTON  1200   51     360/  2/  4   N/A
ATWATER BUOY     1200   46 44   10/  8/ 10   N/A
MILWAUKEE LAKESH 1200   48      20/  8/ 10   N/A
S MID LAKE BUOY  1150   40 38  340/  8/  8   N/A
$$

TC  - TEMPERATURE IN CELSIUS
VSB - VISIBILITY IN STATUTE MILES
WCI - WIND CHILL INDEX
HX  - HEAT INDEX




USA.gov is the U.S. government's official web portal to all federal, state and local government web resources and services.